Location: Newark
(13.8625°N, 100.5144°E)
Time: 17:47:21
(UTC+00:00)

LightSail 2 - Pass Details

Date: 13 May 2021
Orbit: 685 x 700 km, 24.0° (Epoch: 11 June)

Event Time Altitude Azimuth Distance (km) Brightness Sun altitude
Exits shadow 21:13:33 18° 317° (NW) 1,637 6.8 -22.7°
Maximum altitude 21:16:33 34° 12° (NNE) 1,118 6.4 -22.1°
Drops below altitude 10° 21:21:06 10° 77° (ENE) 2,124 8.7 -21.1°
Sets 21:23:41 0° 86° (E) 3,038 9.6 -20.5°
